FW1140 Weather Reports


time (UTC)temp
F
wind
direction
speed
knots
gust
knots
rain 1hr
in
rain 24hr
in
rain mn
in
humidity
%
barometer
mb
20260831104527 68 288 2.6 6.1 0.00 0.00 0.00 75 1004.8
20260831103027 69 287 2.6 7.0 0.00 0.00 0.00 76 1004.6
20260831101512 69 238 3.5 8.7 0.00 0.00 0.00 76 1004.4
20260831100012 70 309 3.5 9.6 0.00 0.00 0.00 79 1004.3
20260831094530 70 294 3.5 8.7 0.00 0.00 0.00 82 1004.0
20260831093051 70 252 4.3 8.7 0.00 0.00 0.00 83 1003.9
20260831091602 70 287 3.5 9.6 0.00 0.00 0.00 86 1003.9
20260831090049 70 283 3.5 7.0 0.00 0.00 0.00 90 1003.6
20260831084606 70 268 1.7 6.1 0.00 0.00 0.00 91 1003.7
20260831083019 0 0.0 0.0 0.00 0.00 0.00 1003.5
20260831081557 0 0.0 0.0 0.00 0.00 0.00 1003.4
20260831080005 0 0.0 0.0 0.00 0.00 0.00 1003.1
20260831074533 0 0.0 0.0 0.00 0.00 0.00 1003.0
20260831073019 0 0.0 0.0 0.00 0.00 0.00 1002.9
20260831071548 0 0.0 0.0 0.00 0.00 0.00 1002.8
20260831070020 0 0.0 0.0 0.00 0.00 0.00 1002.6
20260831064612 0 0.0 0.0 0.00 0.00 0.00 1002.5
20260831063026 0 0.0 0.0 0.00 0.00 0.00 1002.3
20260831061550 0 0.0 0.0 0.00 0.00 0.00 1002.0
20260831060012 0 0.0 0.0 0.00 0.00 0.00 1001.9
20260831054547 0 0.0 0.0 0.00 0.00 0.00 1001.7
20260831053047 0 0.0 0.0 0.00 0.00 0.00 1001.5
20260831051619 0 0.0 0.0 0.00 0.00 0.00 1001.4
20260831050026 74 216 2.6 5.2 0.00 0.00 0.00 93 1001.4
20260831034541 72 226 0.0 1.7 0.00 0.00 0.00 93 1001.8
20260831033050 73 236 0.0 2.6 0.00 0.00 0.00 93 1001.8
20260831031511 72 228 0.9 2.6 0.00 0.00 0.00 92 1001.8
20260831030020 73 228 0.9 1.7 0.00 0.00 0.00 92 1001.6
20260831024633 73 228 0.0 2.6 0.00 0.00 0.00 91 1001.4
20260831023042 74 248 0.9 1.7 0.00 0.00 0.00 91 1001.4
20260831021558 75 224 0.0 2.6 0.00 0.00 0.00 90 1000.9
20260831020003 77 144 1.7 3.5 0.00 0.00 0.00 89 1000.8
20260831014542 76 216 1.7 3.5 0.00 0.00 0.00 88 1000.6
20260831013102 77 117 0.0 1.7 0.00 0.00 0.00 89 1000.7
20260831011601 78 117 0.0 1.7 0.00 0.00 0.00 86 1000.8
20260831010122 79 117 0.9 3.5 0.00 0.00 0.00 84 1000.8
20260831004551 80 127 0.9 2.6 0.00 0.00 0.00 83 1000.9
20260831003053 81 120 1.7 4.3 0.00 0.00 0.00 81 1001.1
20260831001554 82 94 1.7 5.2 0.00 0.00 0.00 79 1001.2
20260831000105 83 116 1.7 5.2 0.00 0.00 0.00 78 1001.2
20260830234534 83 93 2.6 5.2 0.00 0.00 0.00 80 1001.1
20260830233007 82 92 2.6 5.2 0.00 0.00 0.00 80 1000.9
20260830231526 83 70 1.7 7.0 0.00 0.00 0.00 78 1001.1
20260830230049 85 56 2.6 7.0 0.00 0.00 0.00 75 1001.2
20260830224525 86 81 3.5 7.0 0.00 0.00 0.00 74 1001.2
20260830223018 85 40 2.6 6.1 0.00 0.00 0.00 75 1001.4
20260830221551 85 58 4.3 7.8 0.00 0.00 0.00 74 1001.3
20260830220024 84 113 2.6 7.8 0.00 0.00 0.00 74 1001.3
20260830214519 85 72 1.7 6.1 0.00 0.00 0.00 74 1001.4
20260830213031 85 43 3.5 8.7 0.00 0.00 0.00 74 1001.4
20260830211525 84 94 3.5 7.8 0.00 0.00 0.00 74 1001.6
20260830210042 83 60 4.3 8.7 0.00 0.00 0.00 75 1001.7
20260830204545 83 130 3.5 9.6 0.00 0.00 0.00 75 1001.8
20260830203123 80 93 2.6 6.1 0.00 0.00 0.00 80 1002.1
20260830201610 78 57 1.7 4.3 0.00 0.00 0.00 81 1002.3
20260830194552 78 131 3.5 8.7 0.00 0.00 0.00 82 1002.3
20260830193023 77 129 2.6 8.7 0.00 0.00 0.00 82 1002.5
20260830191540 77 134 4.3 8.7 0.00 0.00 0.00 82 1002.8
20260830190041 77 127 2.6 6.1 0.00 0.00 0.00 84 1002.9
20260830184604 75 119 2.6 7.0 0.00 0.00 0.00 85 1003.0
20260830183007 74 120 2.6 6.1 0.00 0.00 0.00 86 1002.9
20260830181533 74 105 2.6 6.1 0.00 0.00 0.00 87 1003.0
20260830180046 73 69 3.5 7.0 0.00 0.00 0.00 88 1003.0
20260830174525 73 95 2.6 7.0 0.00 0.00 0.00 88 1003.1
20260830173009 72 113 2.6 6.1 0.00 0.00 0.00 89 1003.3
20260830171600 72 86 3.5 7.0 0.00 0.00 0.00 90 1003.3
20260830170042 71 119 2.6 6.1 0.00 0.00 0.00 91 1003.3
20260830164558 71 128 3.5 7.8 0.00 0.00 0.00 94 1003.3
20260830163103 70 29 3.5 6.1 0.00 0.00 0.00 95 1003.4
20260830161540 69 92 2.6 6.1 0.00 0.00 0.00 95 1003.5
20260830160008 68 75 3.5 7.0 0.00 0.00 0.00 95 1003.5
20260830154529 68 103 2.6 7.0 0.00 0.00 0.00 95 1003.6
20260830153028 68 73 2.6 5.2 0.00 0.00 0.00 95 1003.7
20260830151542 68 58 2.6 6.1 0.00 0.00 0.00 95 1003.6
20260830150035 68 77 1.7 5.2 0.00 0.00 0.00 95 1003.5
20260830144533 68 56 1.7 4.3 0.00 0.00 0.00 95 1003.5
20260830143052 68 73 2.6 4.3 0.00 0.00 0.00 95 1003.3
20260830141539 68 103 1.7 4.3 0.00 0.00 0.00 95 1003.3
20260830140031 68 72 1.7 5.2 0.00 0.00 0.00 95 1003.1
20260830134557 68 100 1.7 5.2 0.00 0.00 0.00 95 1003.1
20260830133012 67 68 0.9 3.5 0.00 0.00 0.00 95 1003.4
20260830131501 67 63 0.9 3.5 0.00 0.00 0.00 95 1003.3
20260830130024 67 108 0.9 4.3 0.00 0.00 0.00 95 1003.3
20260830124551 67 105 0.9 4.3 0.00 0.00 0.00 94 1003.2
20260830123136 67 71 0.9 3.5 0.00 0.00 0.00 94 1002.9
20260830121504 67 68 0.0 2.6 0.00 0.00 0.00 94 1003.0
20260830120018 67 84 0.0 1.7 0.00 0.00 0.00 94 1003.0
20260830114525 67 71 0.9 3.5 0.00 0.00 0.00 94 1002.9
20260830113027 67 108 0.9 3.5 0.00 0.00 0.00 94 1003.1
20260830111555 67 136 0.9 2.6 0.00 0.00 0.00 94 1003.2
20260830110140 66 94 0.9 2.6 0.00 0.00 0.00 94 1002.8